Year,Month,Day,Hour,Minute,Value (Times are PST for temperature in C)
2015,07,01,00,00,13.20
2015,07,01,00,01,13.20
2015,07,01,00,02,13.20
2015,07,01,00,03,13.20
2015,07,01,00,04,13.20
2015,07,01,00,05,13.20
2015,07,01,00,06,13.20
2015,07,01,00,07,13.20
2015,07,01,00,08,13.20
2015,07,01,00,09,13.20
2015,07,01,00,10,13.20
2015,07,01,00,11,13.20
2015,07,01,00,12,13.20
2015,07,01,00,13,13.20
2015,07,01,00,17,13.20
2015,07,01,00,18,13.20
2015,07,01,00,19,13.20
2015,07,01,00,20,13.20
2015,07,01,00,21,13.20
2015,07,01,00,22,13.20
2015,07,01,00,23,13.20
2015,07,01,00,24,13.20
2015,07,01,00,25,13.20
2015,07,01,00,26,13.20
2015,07,01,00,27,13.20
2015,07,01,00,28,13.20
2015,07,01,00,29,13.20
2015,07,01,00,30,13.20
2015,07,01,00,31,13.20
2015,07,01,00,32,13.20
2015,07,01,00,33,13.20
2015,07,01,00,34,13.20
2015,07,01,00,35,13.20
2015,07,01,00,36,13.20
2015,07,01,00,37,13.20
2015,07,01,00,38,13.20
2015,07,01,00,39,13.20
2015,07,01,00,40,13.20
2015,07,01,00,41,13.20
2015,07,01,00,42,13.20
2015,07,01,00,43,13.20
2015,07,01,00,44,13.10
2015,07,01,00,45,13.10
2015,07,01,00,46,13.10
2015,07,01,00,47,13.10
2015,07,01,00,48,13.10
2015,07,01,00,49,13.10
2015,07,01,00,50,13.10
2015,07,01,00,51,13.10
2015,07,01,00,52,13.10
2015,07,01,00,53,13.10
2015,07,01,00,54,13.10
2015,07,01,00,55,13.10
2015,07,01,00,56,13.10
2015,07,01,00,57,13.10
2015,07,01,00,58,13.10
2015,07,01,00,59,13.10
2015,07,01,01,00,13.10
2015,07,01,01,01,13.10
2015,07,01,01,02,13.10
2015,07,01,01,03,13.10
2015,07,01,01,04,13.10
2015,07,01,01,05,13.10
2015,07,01,01,06,13.10
2015,07,01,01,07,13.10
2015,07,01,01,08,13.10
2015,07,01,01,09,13.10
2015,07,01,01,10,13.10
2015,07,01,01,11,13.10
2015,07,01,01,12,13.10
2015,07,01,01,13,13.10
2015,07,01,01,14,13.10
2015,07,01,01,15,13.10
2015,07,01,01,16,13.10
2015,07,01,01,17,13.10
2015,07,01,01,18,13.10
2015,07,01,01,19,13.10
2015,07,01,01,20,13.10
2015,07,01,01,21,13.10
2015,07,01,01,22,13.10
2015,07,01,01,23,13.10
2015,07,01,01,24,13.10
2015,07,01,01,25,13.10
2015,07,01,01,26,13.10
2015,07,01,01,27,13.10
2015,07,01,01,28,13.10
2015,07,01,01,29,13.10
2015,07,01,01,30,13.10
2015,07,01,01,31,13.10
2015,07,01,01,32,13.10
2015,07,01,01,33,13.10
2015,07,01,01,34,13.10
2015,07,01,01,35,13.10
2015,07,01,01,36,13.10
2015,07,01,01,37,13.10
2015,07,01,01,38,13.10
2015,07,01,01,39,13.10
2015,07,01,01,40,13.10
2015,07,01,01,41,13.10
2015,07,01,01,42,13.10
2015,07,01,01,43,13.10
2015,07,01,01,44,13.00
2015,07,01,01,45,13.00
2015,07,01,01,46,13.00
2015,07,01,01,47,13.00
2015,07,01,01,48,13.00
2015,07,01,01,49,13.00
2015,07,01,01,50,13.00
2015,07,01,01,51,13.00
2015,07,01,01,52,13.00
2015,07,01,01,53,13.00
2015,07,01,01,54,13.00
2015,07,01,01,55,13.00
2015,07,01,01,56,13.00
2015,07,01,01,57,13.00
2015,07,01,01,58,13.00
2015,07,01,01,59,13.00
2015,07,01,02,00,13.00
2015,07,01,02,01,13.00
2015,07,01,02,02,13.00
2015,07,01,02,03,13.00
2015,07,01,02,04,13.00
2015,07,01,02,05,12.90
2015,07,01,02,06,12.90
2015,07,01,02,07,12.90
2015,07,01,02,08,12.90
2015,07,01,02,09,12.90
2015,07,01,02,10,12.90
2015,07,01,02,11,12.90
2015,07,01,02,12,12.90
2015,07,01,02,13,12.90
2015,07,01,02,14,12.90
2015,07,01,02,15,12.90
2015,07,01,02,16,12.90
2015,07,01,02,17,12.90
2015,07,01,02,18,12.90
2015,07,01,02,19,12.90
2015,07,01,02,20,12.90
2015,07,01,02,21,12.90
2015,07,01,02,22,12.90
2015,07,01,02,23,12.90
2015,07,01,02,24,12.90
2015,07,01,02,25,12.90
2015,07,01,02,26,12.90
2015,07,01,02,27,12.90
2015,07,01,02,28,12.90
2015,07,01,02,29,12.90
2015,07,01,02,30,12.90
2015,07,01,02,31,12.90
2015,07,01,02,32,12.90
2015,07,01,02,33,12.90
2015,07,01,02,34,12.90
2015,07,01,02,35,12.80
2015,07,01,02,36,12.80
2015,07,01,02,37,12.80
2015,07,01,02,38,12.80
2015,07,01,02,39,12.80
2015,07,01,02,40,12.80
2015,07,01,02,41,12.80
2015,07,01,02,42,12.80
2015,07,01,02,43,12.80
2015,07,01,02,44,12.80
2015,07,01,02,45,12.80
2015,07,01,02,46,12.80
2015,07,01,02,47,12.80
2015,07,01,02,48,12.80
2015,07,01,02,49,12.80
2015,07,01,02,50,12.80
2015,07,01,02,51,12.80
2015,07,01,02,52,12.80
2015,07,01,02,53,12.80
2015,07,01,02,54,12.80
2015,07,01,02,55,12.80
2015,07,01,02,56,12.80
2015,07,01,02,57,12.80
2015,07,01,02,58,12.80
2015,07,01,02,59,12.80
2015,07,01,03,00,12.80
2015,07,01,03,01,12.80
2015,07,01,03,02,12.80
2015,07,01,03,03,12.80
2015,07,01,03,04,12.80
2015,07,01,03,05,12.80
2015,07,01,03,06,12.80
2015,07,01,03,07,12.80
2015,07,01,03,08,12.80
2015,07,01,03,09,12.70
2015,07,01,03,10,12.70
2015,07,01,03,11,12.70
2015,07,01,03,12,12.70
2015,07,01,03,13,12.70
2015,07,01,03,14,12.70
2015,07,01,03,15,12.70
2015,07,01,03,16,12.70
2015,07,01,03,17,12.70
2015,07,01,03,18,12.70
2015,07,01,03,19,12.70
2015,07,01,03,20,12.70
2015,07,01,03,21,12.70
2015,07,01,03,22,12.70
2015,07,01,03,23,12.60
2015,07,01,03,24,12.60
2015,07,01,03,25,12.60
2015,07,01,03,26,12.60
2015,07,01,03,27,12.60
2015,07,01,03,28,12.60
2015,07,01,03,29,12.60
2015,07,01,03,30,12.60
2015,07,01,03,31,12.60
2015,07,01,03,32,12.60
2015,07,01,03,33,12.60
2015,07,01,03,34,12.60
2015,07,01,03,35,12.60
2015,07,01,03,36,12.60
2015,07,01,03,37,12.60
2015,07,01,03,38,12.60
2015,07,01,03,39,12.60
2015,07,01,03,40,12.60
2015,07,01,03,41,12.60
2015,07,01,03,42,12.60
2015,07,01,03,43,12.60
2015,07,01,03,44,12.60
2015,07,01,03,45,12.60
2015,07,01,03,46,12.60
2015,07,01,03,47,12.60
2015,07,01,03,48,12.50
2015,07,01,03,49,12.50
2015,07,01,03,50,12.50
2015,07,01,03,51,12.50
2015,07,01,03,52,12.50
2015,07,01,03,53,12.50
2015,07,01,03,54,12.40
2015,07,01,03,55,12.40
2015,07,01,03,56,12.40
2015,07,01,03,57,12.40
2015,07,01,03,58,12.40
2015,07,01,03,59,12.40
2015,07,01,04,00,12.40
2015,07,01,04,01,12.30
2015,07,01,04,02,12.30
2015,07,01,04,03,12.30
2015,07,01,04,04,12.30
2015,07,01,04,05,12.30
2015,07,01,04,06,12.30
2015,07,01,04,07,12.30
2015,07,01,04,08,12.30
2015,07,01,04,09,12.20
2015,07,01,04,10,12.20
2015,07,01,04,11,12.20
2015,07,01,04,12,12.20
2015,07,01,04,13,12.20
2015,07,01,04,14,12.20
2015,07,01,04,15,12.20
2015,07,01,04,16,12.10
2015,07,01,04,17,12.10
2015,07,01,04,18,12.10
2015,07,01,04,19,12.10
2015,07,01,04,20,12.00
2015,07,01,04,21,12.00
2015,07,01,04,22,12.00
2015,07,01,04,23,12.00
2015,07,01,04,24,11.90
2015,07,01,04,25,11.90
2015,07,01,04,26,11.90
2015,07,01,04,27,11.90
2015,07,01,04,28,11.80
2015,07,01,04,29,11.80
2015,07,01,04,30,11.80
2015,07,01,04,31,11.80
2015,07,01,04,32,11.80
2015,07,01,04,33,11.80
2015,07,01,04,34,11.80
2015,07,01,04,35,11.80
2015,07,01,04,36,11.70
2015,07,01,04,37,11.70
2015,07,01,04,38,11.70
2015,07,01,04,39,11.70
2015,07,01,04,40,11.70
2015,07,01,04,41,11.70
2015,07,01,04,42,11.70
2015,07,01,04,43,11.70
2015,07,01,04,44,11.60
2015,07,01,04,45,11.60
2015,07,01,04,46,11.60
2015,07,01,04,47,11.60
2015,07,01,04,48,11.60
2015,07,01,04,49,11.60
2015,07,01,04,50,11.60
2015,07,01,04,51,11.60
2015,07,01,04,52,11.60
2015,07,01,04,53,11.60
2015,07,01,04,54,11.60
2015,07,01,04,55,11.60
2015,07,01,04,56,11.50
2015,07,01,04,57,11.50
2015,07,01,04,58,11.50
2015,07,01,04,59,11.50
2015,07,01,05,00,11.50
2015,07,01,05,01,11.50
2015,07,01,05,02,11.60
2015,07,01,05,03,11.60
2015,07,01,05,04,11.60
2015,07,01,05,05,11.60
2015,07,01,05,06,11.60
2015,07,01,05,07,11.60
2015,07,01,05,08,11.60
2015,07,01,05,09,11.60
2015,07,01,05,10,11.60
2015,07,01,05,11,11.60
2015,07,01,05,12,11.50
2015,07,01,05,13,11.50
2015,07,01,05,14,11.50
2015,07,01,05,15,11.50
2015,07,01,05,16,11.50
2015,07,01,05,17,11.40
2015,07,01,05,18,11.40
2015,07,01,05,19,11.40
2015,07,01,05,20,11.40
2015,07,01,05,21,11.40
2015,07,01,05,22,11.40
2015,07,01,05,23,11.40
2015,07,01,05,24,11.40
2015,07,01,05,25,11.40
2015,07,01,05,26,11.40
2015,07,01,05,27,11.40
2015,07,01,05,28,11.40
2015,07,01,05,29,11.40
2015,07,01,05,30,11.40
2015,07,01,05,31,11.40
2015,07,01,05,32,11.40
2015,07,01,05,33,11.40
2015,07,01,05,34,11.40
2015,07,01,05,35,11.40
2015,07,01,05,36,11.40
2015,07,01,05,37,11.50
2015,07,01,05,38,11.50
2015,07,01,05,39,11.50
2015,07,01,05,40,11.50
2015,07,01,05,41,11.50
2015,07,01,05,42,11.50
2015,07,01,05,43,11.50
2015,07,01,05,44,11.40
2015,07,01,05,45,11.40
2015,07,01,05,46,11.40
2015,07,01,05,47,11.40
2015,07,01,05,48,11.40
2015,07,01,05,49,11.40
2015,07,01,05,50,11.30
2015,07,01,05,51,11.30
2015,07,01,05,52,11.30
2015,07,01,05,53,11.30
2015,07,01,05,54,11.30
2015,07,01,05,55,11.30
2015,07,01,05,56,11.30
2015,07,01,05,57,11.30
2015,07,01,05,58,11.30
2015,07,01,05,59,11.30
2015,07,01,06,00,11.30
2015,07,01,06,01,11.30
2015,07,01,06,02,11.30
2015,07,01,06,03,11.30
2015,07,01,06,04,11.30
2015,07,01,06,05,11.30
2015,07,01,06,06,11.30
2015,07,01,06,07,11.30
2015,07,01,06,08,11.30
2015,07,01,06,09,11.30
2015,07,01,06,10,11.30
2015,07,01,06,11,11.30
2015,07,01,06,12,11.30
2015,07,01,06,13,11.30
2015,07,01,06,14,11.40
2015,07,01,06,15,11.40
2015,07,01,06,16,11.50
2015,07,01,06,17,11.60
2015,07,01,06,18,11.60
2015,07,01,06,19,11.70
2015,07,01,06,20,11.60
2015,07,01,06,21,11.60
2015,07,01,06,22,11.60
2015,07,01,06,23,11.70
2015,07,01,06,24,11.70
2015,07,01,06,25,11.70
2015,07,01,06,26,11.70
2015,07,01,06,27,11.80
2015,07,01,06,28,11.80
2015,07,01,06,29,11.80
2015,07,01,06,30,11.90
2015,07,01,06,31,11.90
2015,07,01,06,32,11.90
2015,07,01,06,33,12.00
2015,07,01,06,34,12.00
2015,07,01,06,35,12.10
2015,07,01,06,36,12.10
2015,07,01,06,37,12.10
2015,07,01,06,38,12.20
2015,07,01,06,39,12.20
2015,07,01,06,40,12.20
2015,07,01,06,41,12.30
2015,07,01,06,42,12.40
2015,07,01,06,43,12.40
2015,07,01,06,44,12.50
2015,07,01,06,45,12.50
2015,07,01,06,46,12.60
2015,07,01,06,47,12.60
2015,07,01,06,48,12.60
2015,07,01,06,49,12.70
2015,07,01,06,50,12.80
2015,07,01,06,51,12.90
2015,07,01,06,52,13.00
2015,07,01,06,53,13.00
2015,07,01,06,54,13.10
2015,07,01,06,55,13.10
2015,07,01,06,56,13.20
2015,07,01,06,57,13.20
2015,07,01,06,58,13.30
2015,07,01,06,59,13.30
2015,07,01,07,00,13.30
2015,07,01,07,01,13.40
2015,07,01,07,02,13.40
2015,07,01,07,03,13.50
2015,07,01,07,04,13.50
2015,07,01,07,05,13.60
2015,07,01,07,06,13.70
2015,07,01,07,07,13.70
2015,07,01,07,08,13.80
2015,07,01,07,09,13.90
2015,07,01,07,10,14.00
2015,07,01,07,11,14.00
2015,07,01,07,12,14.10
2015,07,01,07,13,14.20
2015,07,01,07,14,14.20
2015,07,01,07,15,14.30
2015,07,01,07,16,14.30
2015,07,01,07,17,14.40
2015,07,01,07,18,14.40
2015,07,01,07,19,14.50
2015,07,01,07,20,14.60
2015,07,01,07,21,14.70
2015,07,01,07,22,14.70
2015,07,01,07,23,14.80
2015,07,01,07,24,14.90
2015,07,01,07,25,14.90
2015,07,01,07,26,15.00
2015,07,01,07,27,15.10
2015,07,01,07,28,15.20
2015,07,01,07,29,15.30
2015,07,01,07,30,15.40
2015,07,01,07,31,15.40
2015,07,01,07,32,15.50
2015,07,01,07,33,15.50
2015,07,01,07,34,15.60
2015,07,01,07,35,15.60
2015,07,01,07,36,15.60
2015,07,01,07,37,15.70
2015,07,01,07,38,15.70
2015,07,01,07,39,15.80
2015,07,01,07,40,15.80
2015,07,01,07,41,15.90
2015,07,01,07,42,16.00
2015,07,01,07,43,16.00
2015,07,01,07,44,16.10
2015,07,01,07,45,16.20
2015,07,01,07,46,16.30
2015,07,01,07,47,16.30
2015,07,01,07,48,16.40
2015,07,01,07,49,16.50
2015,07,01,07,50,16.60
2015,07,01,07,51,16.70
2015,07,01,07,52,16.80
2015,07,01,07,53,16.80
2015,07,01,07,54,16.90
2015,07,01,07,55,17.00
2015,07,01,07,56,17.10
2015,07,01,07,57,17.20
2015,07,01,07,58,17.30
2015,07,01,07,59,17.40
2015,07,01,08,00,17.40
2015,07,01,08,01,17.50
2015,07,01,08,02,17.50
2015,07,01,08,03,17.60
2015,07,01,08,04,17.60
2015,07,01,08,05,17.60
2015,07,01,08,06,17.60
2015,07,01,08,07,17.60
2015,07,01,08,08,17.60
2015,07,01,08,09,17.70
2015,07,01,08,10,17.70
2015,07,01,08,11,17.70
2015,07,01,08,12,17.70
2015,07,01,08,13,17.70
2015,07,01,08,14,17.70
2015,07,01,08,15,17.70
2015,07,01,08,16,17.70
2015,07,01,08,17,17.70
2015,07,01,08,18,17.70
2015,07,01,08,19,17.70
2015,07,01,08,20,17.80
2015,07,01,08,21,17.90
2015,07,01,08,22,18.00
2015,07,01,08,23,18.10
2015,07,01,08,24,18.20
2015,07,01,08,25,18.30
2015,07,01,08,26,18.30
2015,07,01,08,27,18.30
2015,07,01,08,28,18.30
2015,07,01,08,29,18.30
2015,07,01,08,30,18.30
2015,07,01,08,31,18.40
2015,07,01,08,32,18.40
2015,07,01,08,33,18.50
2015,07,01,08,34,18.60
2015,07,01,08,35,18.70
2015,07,01,08,36,18.70
2015,07,01,08,37,18.80
2015,07,01,08,38,18.80
2015,07,01,08,39,18.90
2015,07,01,08,40,18.90
2015,07,01,08,41,19.00
2015,07,01,08,42,19.00
2015,07,01,08,43,19.10
2015,07,01,08,44,19.10
2015,07,01,08,45,19.10
2015,07,01,08,46,19.00
2015,07,01,08,47,18.90
2015,07,01,08,48,18.80
2015,07,01,08,49,18.70
2015,07,01,08,50,18.50
2015,07,01,08,51,18.40
2015,07,01,08,52,18.20
2015,07,01,08,53,18.10
2015,07,01,08,54,17.90
2015,07,01,08,55,17.80
2015,07,01,08,56,17.80
2015,07,01,08,57,17.70
2015,07,01,08,58,17.60
2015,07,01,08,59,17.60
2015,07,01,09,00,17.50
2015,07,01,09,01,17.40
2015,07,01,09,02,17.40
2015,07,01,09,03,17.30
2015,07,01,09,04,17.30
2015,07,01,09,05,17.30
2015,07,01,09,06,17.30
2015,07,01,09,07,17.30
2015,07,01,09,08,17.30
2015,07,01,09,09,17.40
2015,07,01,09,10,17.40
2015,07,01,09,11,17.50
2015,07,01,09,12,17.60
2015,07,01,09,13,17.70
2015,07,01,09,14,17.90
2015,07,01,09,15,18.10
2015,07,01,09,16,18.20
2015,07,01,09,17,18.40
2015,07,01,09,18,18.50
2015,07,01,09,19,18.60
2015,07,01,09,20,18.70
2015,07,01,09,21,18.70
2015,07,01,09,22,18.60
2015,07,01,09,23,18.50
2015,07,01,09,24,18.40
2015,07,01,09,25,18.30
2015,07,01,09,26,18.30
2015,07,01,09,27,18.30
2015,07,01,09,28,18.20
2015,07,01,09,29,18.20
2015,07,01,09,30,18.20
2015,07,01,09,31,18.20
2015,07,01,09,32,18.30
2015,07,01,09,33,18.30
2015,07,01,09,34,18.30
2015,07,01,09,35,18.30
2015,07,01,09,36,18.30
2015,07,01,09,37,18.40
2015,07,01,09,38,18.40
2015,07,01,09,39,18.50
2015,07,01,09,40,18.60
2015,07,01,09,41,18.70
2015,07,01,09,42,18.80
2015,07,01,09,43,18.80
2015,07,01,09,44,18.90
2015,07,01,09,45,19.00
2015,07,01,09,46,19.10
2015,07,01,09,47,19.20
2015,07,01,09,48,19.20
2015,07,01,09,49,19.20
2015,07,01,09,50,19.30
2015,07,01,09,51,19.30
2015,07,01,09,52,19.30
2015,07,01,09,53,19.20
2015,07,01,09,54,19.10
2015,07,01,09,55,18.90
2015,07,01,09,56,18.90
2015,07,01,09,57,19.00
2015,07,01,09,58,19.10
2015,07,01,09,59,19.10
2015,07,01,10,00,19.20
2015,07,01,10,01,19.30
2015,07,01,10,02,19.40
2015,07,01,10,03,19.60
2015,07,01,10,04,19.70
2015,07,01,10,05,19.80
2015,07,01,10,06,19.90
2015,07,01,10,07,20.00
2015,07,01,10,08,20.10
2015,07,01,10,09,20.20
2015,07,01,10,10,20.30
2015,07,01,10,11,20.40
2015,07,01,10,12,20.50
2015,07,01,10,13,20.70
2015,07,01,10,14,20.80
2015,07,01,10,15,20.90
2015,07,01,10,16,21.00
2015,07,01,10,17,21.10
2015,07,01,10,18,21.20
2015,07,01,10,19,21.20
2015,07,01,10,20,21.30
2015,07,01,10,21,21.40
2015,07,01,10,22,21.50
2015,07,01,10,23,21.60
2015,07,01,10,24,21.60
2015,07,01,10,25,21.60
2015,07,01,10,26,21.70
2015,07,01,10,27,21.70
2015,07,01,10,28,21.70
2015,07,01,10,29,21.70
2015,07,01,10,30,21.70
2015,07,01,10,31,21.70
2015,07,01,10,32,21.70
2015,07,01,10,33,21.60
2015,07,01,10,34,21.50
2015,07,01,10,35,21.40
2015,07,01,10,36,21.40
2015,07,01,10,37,21.40
2015,07,01,10,38,21.40
2015,07,01,10,39,21.40
2015,07,01,10,40,21.40
2015,07,01,10,41,21.40
2015,07,01,10,42,21.30
2015,07,01,10,43,21.20
2015,07,01,10,44,21.00
2015,07,01,10,45,20.90
2015,07,01,10,46,20.80
2015,07,01,10,47,20.70
2015,07,01,10,48,20.70
2015,07,01,10,49,20.60
2015,07,01,10,50,20.50
2015,07,01,10,51,20.50
2015,07,01,10,52,20.40
2015,07,01,10,53,20.40
2015,07,01,10,54,20.50
2015,07,01,10,55,20.50
2015,07,01,10,56,20.40
2015,07,01,10,57,20.40
2015,07,01,10,58,20.30
2015,07,01,10,59,20.40
2015,07,01,11,00,20.50
2015,07,01,11,01,20.60
2015,07,01,11,02,20.70
2015,07,01,11,03,20.80
2015,07,01,11,04,20.90
2015,07,01,11,05,21.00
2015,07,01,11,06,21.10
2015,07,01,11,07,21.20
2015,07,01,11,08,21.30
2015,07,01,11,09,21.50
2015,07,01,11,10,21.50
2015,07,01,11,11,21.60
2015,07,01,11,12,21.70
2015,07,01,11,13,21.70
2015,07,01,11,14,21.80
2015,07,01,11,15,21.90
2015,07,01,11,16,21.90
2015,07,01,11,17,22.00
2015,07,01,11,18,22.20
2015,07,01,11,19,22.30
2015,07,01,11,20,22.40
2015,07,01,11,21,22.40
2015,07,01,11,22,22.40
2015,07,01,11,23,22.40
2015,07,01,11,24,22.50
2015,07,01,11,25,22.60
2015,07,01,11,26,22.60
2015,07,01,11,27,22.60
2015,07,01,11,28,22.70
2015,07,01,11,29,22.70
2015,07,01,11,30,22.80
2015,07,01,11,31,22.80
2015,07,01,11,32,22.80
2015,07,01,11,33,22.90
2015,07,01,11,34,23.00
2015,07,01,11,35,23.00
2015,07,01,11,36,23.10
2015,07,01,11,37,23.10
2015,07,01,11,38,23.20
2015,07,01,11,39,23.20
2015,07,01,11,40,23.20
2015,07,01,11,41,23.30
2015,07,01,11,42,23.40
2015,07,01,11,43,23.40
2015,07,01,11,44,23.50
2015,07,01,11,45,23.50
2015,07,01,11,46,23.60
2015,07,01,11,47,23.60
2015,07,01,11,48,23.60
2015,07,01,11,49,23.40
2015,07,01,11,50,23.30
2015,07,01,11,51,23.20
2015,07,01,11,52,23.10
2015,07,01,11,53,23.10
2015,07,01,11,54,23.10
2015,07,01,11,55,23.00
2015,07,01,11,56,23.00
2015,07,01,11,57,22.90
2015,07,01,11,58,22.90
2015,07,01,11,59,22.90
2015,07,01,12,00,22.90
2015,07,01,12,01,22.90
2015,07,01,12,02,22.90
2015,07,01,12,03,23.10
2015,07,01,12,04,23.20
2015,07,01,12,05,23.30
2015,07,01,12,06,23.50
2015,07,01,12,07,23.50
2015,07,01,12,08,23.60
2015,07,01,12,09,23.50
2015,07,01,12,10,23.50
2015,07,01,12,11,23.40
2015,07,01,12,12,23.40
2015,07,01,12,13,23.40
2015,07,01,12,14,23.30
2015,07,01,12,15,23.20
2015,07,01,12,16,23.20
2015,07,01,12,17,23.20
2015,07,01,12,18,23.20
2015,07,01,12,19,23.20
2015,07,01,12,20,23.30
2015,07,01,12,21,23.20
2015,07,01,12,22,23.20
2015,07,01,12,23,23.10
2015,07,01,12,24,23.00
2015,07,01,12,25,23.00
2015,07,01,12,26,23.00
2015,07,01,12,27,23.10
2015,07,01,12,28,23.10
2015,07,01,12,29,23.20
2015,07,01,12,30,23.30
2015,07,01,12,31,23.30
2015,07,01,12,32,23.40
2015,07,01,12,33,23.50
2015,07,01,12,34,23.60
2015,07,01,12,35,23.70
2015,07,01,12,36,23.70
2015,07,01,12,37,23.80
2015,07,01,12,38,23.90
2015,07,01,12,39,24.00
2015,07,01,12,40,24.00
2015,07,01,12,41,24.10
2015,07,01,12,42,24.20
2015,07,01,12,43,24.30
2015,07,01,12,44,24.40
2015,07,01,12,45,24.40
2015,07,01,12,46,24.30
2015,07,01,12,47,24.30
2015,07,01,12,48,24.30
2015,07,01,12,49,24.10
2015,07,01,12,50,24.00
2015,07,01,12,51,23.80
2015,07,01,12,52,23.60
2015,07,01,12,53,23.60
2015,07,01,12,54,23.50
2015,07,01,12,55,23.60
2015,07,01,12,56,23.60
2015,07,01,12,57,23.70
2015,07,01,12,58,23.80
2015,07,01,12,59,23.90
2015,07,01,13,00,24.00
2015,07,01,13,01,24.00
2015,07,01,13,02,24.10
2015,07,01,13,03,24.20
2015,07,01,13,04,24.20
2015,07,01,13,05,24.30
2015,07,01,13,06,24.50
2015,07,01,13,07,24.50
2015,07,01,13,08,24.50
2015,07,01,13,09,24.50
2015,07,01,13,10,24.50
2015,07,01,13,11,24.50
2015,07,01,13,12,24.50
2015,07,01,13,13,24.60
2015,07,01,13,14,24.70
2015,07,01,13,15,24.80
2015,07,01,13,16,24.80
2015,07,01,13,17,24.70
2015,07,01,13,18,24.70
2015,07,01,13,19,24.60
2015,07,01,13,20,24.50
2015,07,01,13,21,24.40
2015,07,01,13,22,24.30
2015,07,01,13,23,24.30
2015,07,01,13,24,24.30
2015,07,01,13,25,24.40
2015,07,01,13,26,24.50
2015,07,01,13,27,24.50
2015,07,01,13,28,24.50
2015,07,01,13,29,24.40
2015,07,01,13,30,24.30
2015,07,01,13,31,24.30
2015,07,01,13,32,24.40
2015,07,01,13,33,24.40
2015,07,01,13,34,24.40
2015,07,01,13,35,24.40
2015,07,01,13,36,24.30
2015,07,01,13,37,24.20
2015,07,01,13,38,24.10
2015,07,01,13,39,24.10
2015,07,01,13,40,24.10
2015,07,01,13,41,24.10
2015,07,01,13,42,24.10
2015,07,01,13,43,24.10
2015,07,01,13,44,24.20
2015,07,01,13,45,24.20
2015,07,01,13,46,24.20
2015,07,01,13,47,24.30
2015,07,01,13,48,24.30
2015,07,01,13,49,24.30
2015,07,01,13,50,24.30
2015,07,01,13,51,24.30
2015,07,01,13,52,24.30
2015,07,01,13,53,24.40
2015,07,01,13,54,24.40
2015,07,01,13,55,24.50
2015,07,01,13,56,24.50
2015,07,01,13,57,24.60
2015,07,01,13,58,24.70
2015,07,01,13,59,24.80
2015,07,01,14,00,24.80
2015,07,01,14,01,24.90
2015,07,01,14,02,24.90
2015,07,01,14,03,25.00
2015,07,01,14,04,25.00
2015,07,01,14,05,25.10
2015,07,01,14,06,25.10
2015,07,01,14,07,25.10
2015,07,01,14,08,25.20
2015,07,01,14,09,25.30
2015,07,01,14,10,25.30
2015,07,01,14,11,25.30
2015,07,01,14,12,25.30
2015,07,01,14,13,25.20
2015,07,01,14,14,25.20
2015,07,01,14,15,25.10
2015,07,01,14,16,25.10
2015,07,01,14,17,24.90
2015,07,01,14,18,24.80
2015,07,01,14,19,24.80
2015,07,01,14,20,24.70
2015,07,01,14,21,24.60
2015,07,01,14,22,24.60
2015,07,01,14,23,24.60
2015,07,01,14,24,24.60
2015,07,01,14,25,24.60
2015,07,01,14,26,24.60
2015,07,01,14,27,24.70
2015,07,01,14,28,24.80
2015,07,01,14,29,24.90
2015,07,01,14,30,25.00
2015,07,01,14,31,25.20
2015,07,01,14,32,25.30
2015,07,01,14,33,25.40
2015,07,01,14,34,25.60
2015,07,01,14,35,25.70
2015,07,01,14,36,25.80
2015,07,01,14,37,26.00
2015,07,01,14,38,26.20
2015,07,01,14,39,26.30
2015,07,01,14,40,26.50
2015,07,01,14,41,26.60
2015,07,01,14,42,26.80
2015,07,01,14,43,26.90
2015,07,01,14,44,27.00
2015,07,01,14,45,27.10
2015,07,01,14,46,27.20
2015,07,01,14,47,27.30
2015,07,01,14,48,27.40
2015,07,01,14,49,27.50
2015,07,01,14,50,27.60
2015,07,01,14,51,27.60
2015,07,01,14,52,27.60
2015,07,01,14,53,27.60
2015,07,01,14,54,27.70
2015,07,01,14,55,27.70
2015,07,01,14,56,27.70
2015,07,01,14,57,27.70
2015,07,01,14,58,27.70
2015,07,01,14,59,27.70
2015,07,01,15,00,27.60
2015,07,01,15,01,27.40
2015,07,01,15,02,27.20
2015,07,01,15,03,27.00
2015,07,01,15,04,26.80
2015,07,01,15,05,26.50
2015,07,01,15,06,26.30
2015,07,01,15,07,26.20
2015,07,01,15,08,26.10
2015,07,01,15,09,26.00
2015,07,01,15,10,25.90
2015,07,01,15,11,25.80
2015,07,01,15,12,25.70
2015,07,01,15,13,25.60
2015,07,01,15,14,25.60
2015,07,01,15,15,25.50
2015,07,01,15,16,25.50
2015,07,01,15,17,25.50
2015,07,01,15,18,25.40
2015,07,01,15,19,25.40
2015,07,01,15,20,25.40
2015,07,01,15,21,25.50
2015,07,01,15,22,25.50
2015,07,01,15,23,25.60
2015,07,01,15,24,25.70
2015,07,01,15,25,25.80
2015,07,01,15,26,25.90
2015,07,01,15,27,26.00
2015,07,01,15,28,26.20
2015,07,01,15,29,26.30
2015,07,01,15,30,26.60
2015,07,01,15,31,26.80
2015,07,01,15,32,27.10
2015,07,01,15,33,27.40
2015,07,01,15,34,27.60
2015,07,01,15,35,27.90
2015,07,01,15,36,28.10
2015,07,01,15,37,28.30
2015,07,01,15,38,28.50
2015,07,01,15,39,28.70
2015,07,01,15,40,28.80
2015,07,01,15,41,28.80
2015,07,01,15,42,28.90
2015,07,01,15,43,28.90
2015,07,01,15,44,29.00
2015,07,01,15,45,29.10
2015,07,01,15,46,29.20
2015,07,01,15,47,29.30
2015,07,01,15,48,29.30
2015,07,01,15,49,29.20
2015,07,01,15,50,29.20
2015,07,01,15,51,29.20
2015,07,01,15,52,29.20
2015,07,01,15,53,29.10
2015,07,01,15,54,29.10
2015,07,01,15,55,29.00
2015,07,01,15,56,28.90
2015,07,01,15,57,28.80
2015,07,01,15,58,28.70
2015,07,01,15,59,28.60
2015,07,01,16,00,28.70
2015,07,01,16,01,28.70
2015,07,01,16,02,28.80
2015,07,01,16,03,28.80
2015,07,01,16,04,28.90
2015,07,01,16,05,28.90
2015,07,01,16,06,28.90
2015,07,01,16,07,29.00
2015,07,01,16,08,29.10
2015,07,01,16,09,29.10
2015,07,01,16,10,29.10
2015,07,01,16,11,29.10
2015,07,01,16,12,29.10
2015,07,01,16,13,29.10
2015,07,01,16,14,29.00
2015,07,01,16,15,28.90
2015,07,01,16,16,28.80
2015,07,01,16,17,28.80
2015,07,01,16,18,28.80
2015,07,01,16,19,28.90
2015,07,01,16,20,29.00
2015,07,01,16,21,29.00
2015,07,01,16,22,29.10
2015,07,01,16,23,29.10
2015,07,01,16,24,29.00
2015,07,01,16,25,28.90
2015,07,01,16,26,28.80
2015,07,01,16,27,28.80
2015,07,01,16,28,28.90
2015,07,01,16,29,28.90
2015,07,01,16,30,28.90
2015,07,01,16,31,28.80
2015,07,01,16,32,28.80
2015,07,01,16,33,28.80
2015,07,01,16,34,28.80
2015,07,01,16,35,28.80
2015,07,01,16,36,28.70
2015,07,01,16,37,28.60
2015,07,01,16,38,28.40
2015,07,01,16,39,28.40
2015,07,01,16,40,28.30
2015,07,01,16,41,28.20
2015,07,01,16,42,28.20
2015,07,01,16,43,28.10
2015,07,01,16,44,28.00
2015,07,01,16,45,27.80
2015,07,01,16,46,27.80
2015,07,01,16,47,27.80
2015,07,01,16,48,27.80
2015,07,01,16,49,27.70
2015,07,01,16,50,27.60
2015,07,01,16,51,27.40
2015,07,01,16,52,27.30
2015,07,01,16,53,27.10
2015,07,01,16,54,27.10
2015,07,01,16,55,27.00
2015,07,01,16,56,27.00
2015,07,01,16,57,26.90
2015,07,01,16,58,26.90
2015,07,01,16,59,27.00
2015,07,01,17,00,27.00
2015,07,01,17,01,26.90
2015,07,01,17,02,26.80
2015,07,01,17,03,26.70
2015,07,01,17,04,26.70
2015,07,01,17,05,26.70
2015,07,01,17,06,26.70
2015,07,01,17,07,26.80
2015,07,01,17,08,26.80
2015,07,01,17,09,26.90
2015,07,01,17,10,26.90
2015,07,01,17,11,26.90
2015,07,01,17,12,26.90
2015,07,01,17,13,27.00
2015,07,01,17,14,27.00
2015,07,01,17,15,26.90
2015,07,01,17,16,26.90
2015,07,01,17,17,26.90
2015,07,01,17,18,26.80
2015,07,01,17,19,26.70
2015,07,01,17,20,26.60
2015,07,01,17,21,26.60
2015,07,01,17,22,26.60